Weather History for KLTS - June, 2013

Change the Weather History Date:

Friday, June 7, 2013

  Actual Average Record
Temperature  
Mean Temperature 72 °F -  
Max Temperature 86 °F 87 °F 104 °F (2011)
Min Temperature 57 °F 65 °F 57 °F (1998)
Cooling Degree Days 6    
Growing Degree Days 22 (Base 50)    
Moisture  
Dew Point 55 °F    
Average Humidity 56    
Maximum Humidity 96    
Minimum Humidity 33    
Precipitation  
Precipitation 0.00 in - - ()
Sea Level Pressure  
Sea Level Pressure 29.96 in    
Wind  
Wind Speed 5 mph (SE)    
Max Wind Speed 16 mph    
Max Gust Speed 18 mph    
Visibility 10 miles    
Events      
Averages and records for this station are not official NWS values.
T = Trace of Precipitation, MM = Missing Value Source: NWS Daily Summary

Daily Weather History Graph

Daily Weather History Graph

Search for Another Location

Airport or City:

Trip Planner

Search our weather history database for the weather conditions in past years. The results will help you decide how hot, cold, wet, or windy it might be!

Date:

Astronomy

Jun. 07, 2013 Rise Set
Actual Time 6:23 AM CDT 8:48 PM CDT
Civil Twilight 5:54 AM CDT 9:17 PM CDT
Nautical Twilight 5:18 AM CDT 9:53 PM CDT
Astronomical Twilight 4:38 AM CDT 10:33 PM CDT
Moon 5:44 AM CDT (6/7) 8:06 PM CDT (6/7)
Length of Visible Light 15h 23m
Length of Day
14h 24m
Waning Crescent, 1% of the Moon is Illuminated
Jun 7
Waning Crescent
Jun 8
New
Jun 16
First Quarter
Jun 23
Full
Jun 29
Last Quarter

Hourly Weather History & Observations

Time (CDT) Temp. Heat Index Dew Point Humidity Pressure Visibility Wind Dir Wind Speed Gust Speed Precip Events Conditions
12:58 AM 64.2 °F - 56.7 °F 76% 30.00 in 10.0 mi ESE 1.2 mph - N/A   Clear
1:58 AM 62.4 °F - 56.8 °F 82% 30.00 in 10.0 mi Calm Calm - N/A   Clear
2:58 AM 60.8 °F - 56.3 °F 85% 30.01 in 10.0 mi NNW 3.5 mph - N/A   Clear
3:58 AM 59.9 °F - 56.7 °F 89% 30.00 in 10.0 mi NW 3.5 mph - N/A   Clear
4:58 AM 57.4 °F - 55.8 °F 94% 29.99 in 10.0 mi NNE 4.6 mph - N/A   Clear
5:58 AM 59.5 °F - 55.4 °F 86% 30.00 in 10.0 mi NW 2.3 mph - N/A   Clear
6:58 AM 58.3 °F - 57.0 °F 96% 29.99 in 10.0 mi North 6.9 mph - N/A   Clear
7:58 AM 61.9 °F - 58.5 °F 89% 29.99 in 10.0 mi NE 5.8 mph - N/A   Clear
8:58 AM 69.1 °F - 60.1 °F 73% 30.00 in 10.0 mi WNW 1.2 mph - N/A   Clear
9:58 AM 74.5 °F - 57.2 °F 55% 30.01 in 10.0 mi South 5.8 mph - N/A   Clear
10:58 AM 77.2 °F - 51.4 °F 41% 30.00 in 10.0 mi Variable 2.3 mph - N/A   Clear
11:58 AM 80.6 °F - 51.1 °F 36% 30.00 in 10.0 mi Variable 5.8 mph - N/A   Clear
12:58 PM 82.2 °F - 52.5 °F 36% 29.99 in 10.0 mi ESE 6.9 mph 17.3 mph N/A   Scattered Clouds
1:38 PM 82.4 °F - 51.8 °F 35% 30.01 in 10.0 mi South 6.9 mph - N/A   Mostly Cloudy
1:58 PM 81.9 °F - 52.9 °F 37% 29.97 in 10.0 mi Variable 5.8 mph - N/A   Mostly Cloudy
2:11 PM 82.4 °F 81.4 °F 53.6 °F 37% 30.00 in 10.0 mi SE 10.4 mph - N/A   Mostly Cloudy
2:58 PM 82.2 °F 81.2 °F 53.1 °F 36% 29.95 in 10.0 mi Variable 3.5 mph - N/A   Mostly Cloudy
3:08 PM 84.2 °F 82.8 °F 53.6 °F 35% 29.97 in 10.0 mi SE 5.8 mph - N/A   Mostly Cloudy
3:13 PM 84.2 °F 82.8 °F 53.6 °F 35% 29.97 in 10.0 mi Variable 3.5 mph - N/A   Scattered Clouds
3:58 PM 83.1 °F 81.9 °F 53.2 °F 36% 29.92 in 10.0 mi SSE 10.4 mph - N/A   Scattered Clouds
4:58 PM 86.2 °F 84.4 °F 53.8 °F 33% 29.90 in 10.0 mi SE 9.2 mph - N/A   Scattered Clouds
5:58 PM 84.7 °F 83.4 °F 54.7 °F 36% 29.88 in 10.0 mi SSE 16.1 mph 18.4 mph N/A   Scattered Clouds
6:58 PM 82.6 °F 81.7 °F 54.3 °F 38% 29.87 in 10.0 mi SSE 10.4 mph - N/A   Partly Cloudy
7:58 PM 80.8 °F 80.6 °F 54.9 °F 41% 29.87 in 10.0 mi SSE 12.7 mph - N/A   Mostly Cloudy
8:58 PM 76.8 °F - 55.0 °F 47% 29.88 in 10.0 mi SE 12.7 mph - N/A   Mostly Cloudy
9:58 PM 74.5 °F - 55.6 °F 52% 29.87 in 10.0 mi SE 10.4 mph - N/A   Clear
10:58 PM 72.0 °F - 56.1 °F 57% 29.88 in 10.0 mi SE 10.4 mph - N/A   Clear
11:58 PM 69.6 °F - 56.5 °F 63% 29.90 in 10.0 mi SSE 10.4 mph - N/A   Clear